This is the latest recevied weather packets stored in our database for station/object N0HEQ. If no packets are shown the sender has not sent any weather packets the latest 10 day(s).
| Time | Temp. | Humidity | Pressure | Rain* | Wind** | Luminosity | Snow |
|---|---|---|---|---|---|---|---|
| 1777083000 | 16.67° C | 8% | 1007.5 hPa | 0 mm | - | 0 W/m² | - |
| 1777082695 | 17.22° C | 8% | 1007.1 hPa | 0 mm | - | 0 W/m² | - |
| 1777082391 | 17.22° C | 7% | 1007.4 hPa | 0 mm | - | 0 W/m² | - |
| 1777082090 | 17.22° C | 7% | 1007.3 hPa | 0 mm | - | 0 W/m² | - |
| 1777081786 | 17.22° C | 7% | 1007 hPa | 0 mm | - | 1 W/m² | - |
| 1777081482 | 17.78° C | 7% | 1007.1 hPa | 0 mm | - | 1 W/m² | - |
| 1777081178 | 17.78° C | 8% | 1006.9 hPa | 0 mm | - | 2 W/m² | - |
| 1777080876 | 18.33° C | 7% | 1006.7 hPa | 0 mm | - | 4 W/m² | - |
| 1777080572 | 18.33° C | 7% | 1006.7 hPa | 0 mm | - | 5 W/m² | - |
| 1777080268 | 18.89° C | 7% | 1006.7 hPa | 0 mm | - | 8 W/m² | - |
| 1777079967 | 19.44° C | 6% | 1006.7 hPa | 0 mm | - | 9 W/m² | - |
| 1777079666 | 19.44° C | 5% | 1006.4 hPa | 0 mm | - | 15 W/m² | - |
| 1777079362 | 19.44° C | 6% | 1006.7 hPa | 0 mm | - | 20 W/m² | - |
| 1777079058 | 20° C | 6% | 1006.5 hPa | 0 mm | - | 24 W/m² | - |
| 1777078755 | 20° C | 5% | 1006.7 hPa | 0 mm | - | 28 W/m² | - |
| 1777078452 | 20° C | 5% | 1006.3 hPa | 0 mm | - | 30 W/m² | - |
| 1777078151 | 20.56° C | 5% | 1006.7 hPa | 0 mm | - | 37 W/m² | - |
| 1777077846 | 20.56° C | 5% | 1006.5 hPa | 0 mm | - | 40 W/m² | - |
| 1777077544 | 20.56° C | 6% | 1006.5 hPa | 0 mm | - | 43 W/m² | - |
| 1777077239 | 21.11° C | 5% | 1006.4 hPa | 0 mm | - | 46 W/m² | - |
| 1777076938 | 21.67° C | 5% | 1006.3 hPa | 0 mm | - | 70 W/m² | - |
| 1777076634 | 22.22° C | 4% | 1006.3 hPa | 0 mm | - | 95 W/m² | - |
* Rain latest hour (hover to see other rain measurements)
** Current wind speed in m/s (hover to see current wind gust speed)